Regional Weather Roundup
Issued by NWS

Home | Current Version | Previous Version | Graphics & Text | Print | Product List | Glossary Off
Versions: 1 2 3 4 5 6 7 8 9 10 11 12 13 14 15 16 17 18 19 20 21 22 23 24 25 26 27 28 29 30 31 32 33 34 35 36 37 38 39 40 41 42 43 44 45 46 47 48 49 50

000
ASUS43 KTOP 251908
RWRKS

WEATHER ROUNDUP FOR KANSAS
NATIONAL WEATHER SERVICE GOODLAND KS
100 PM CST SUN JAN 25 2015

NOTE:  "FAIR" INDICATES FEW OR NO CLOUDS BELOW 12,000 FEET WITH NO
SIGNIFICANT WEATHER AND/OR OBSTRUCTIONS TO VISIBILITY.

KSZ001>006-013>018-027>032-041>047-252000-
NORTHWEST KANSAS

CITY           SKY/WX    TMP DP  RH WIND       PRES   REMARKS
GOODLAND       MOSUNNY   53  22  29 N28G37    30.10F
HAYS           SUNNY     48  25  40 N23G35    30.09R
HILL CITY      SUNNY     50  25  37 N24G33    30.10S
RUSSELL        MOSUNNY   49  28  44 N30G36    30.05F
$$

KSZ061>065-074>080-084>089-252000-
SOUTHWEST KANSAS

CITY           SKY/WX    TMP DP  RH WIND       PRES   REMARKS
DODGE CITY     SUNNY     52  19  27 NW24G37   30.10F
ELKHART          N/A     53  29  39 NW14        N/A
GARDEN CITY    SUNNY     53  25  33 N29G38    30.11F
GREAT BEND     MOSUNNY   50  27  40 N28G37    30.07S
LIBERAL        SUNNY     55  28  35 NW18G25   30.16R
PRATT          SUNNY     50  27  40 N33G44    30.05F
$$

KSZ066>073-081>083-090>101-252000-
SOUTHEAST KANSAS

CITY           SKY/WX    TMP DP  RH WIND       PRES   REMARKS
CHANUTE        CLOUDY    45  32  60 NW20G32   29.90R
COFFEYVILLE    CLOUDY    48  32  53 N23G30    29.91R
HUTCHINSON     PTSUNNY   50  28  42 N25G37    30.01R
MEDICINE LODGE   N/A     53  27  36 N29G39    30.03R
NEWTON         CLOUDY    45  28  53 NW23G30   30.00R
PARSONS        CLOUDY    46  33  60 NW25G32   29.91R
WICHITA INTL   PTSUNNY   51  29  42 NW31G39   29.99R
WICHITA JABRA  CLOUDY    47  30  51 N31G40    29.98R
WICHITA MCCONL PTSUNNY   48  30  49 N28G37    29.98R
WINFIELD       CLOUDY    51  30  44 NW31G39   29.99R
$$

KSZ007>012-019>026-033>040-048>060-102>105-252000-
NORTHEAST KANSAS

CITY           SKY/WX    TMP DP  RH WIND       PRES   REMARKS
CONCORDIA      CLOUDY    43  32  65 N22G36    30.02R
EMPORIA        CLOUDY    44  31  60 N21G37    29.92R
LAWRENCE       CLOUDY    39  33  79 N18G37    29.89R WCI  30
MANHATTAN      CLOUDY    44  31  60 N16G28    29.99R
MARYSVILLE     CLOUDY    41  32  70 N24G30    29.97R
OLATHE IND     CLOUDY    38  34  85 NW22G33   29.86R WCI  27
OLATHE EXE     CLOUDY    38  34  85 N24G32    29.83R WCI  27
SALINA         CLOUDY    47  31  53 N29G38    30.01S
TOPEKA BILLARD CLOUDY    40  32  73 N18G32    29.92R WCI  31
TOPEKA FORBES  CLOUDY    42  32  67 N25G33    29.90R
$$



USA.gov is the U.S. government's official web portal to all federal, state and local government web resources and services.